Regional Weather Roundup
Issued by NWS

Home | Current Version | Previous Version | Graphics & Text | Print | Product List | Glossary On
Versions: 1 2 3 4 5 6 7 8 9 10 11 12 13 14 15 16 17 18 19 20 21 22 23 24 25 26 27 28 29 30 31 32 33 34 35 36 37 38 39 40 41 42 43 44 45 46 47 48 49 50
000
ASUS43 KOAX 282002
RWRNE

WEATHER ROUNDUP FOR NEBRASKA
NATIONAL WEATHER SERVICE OMAHA NE
300 PM CDT SAT MAY 28 2016

NOTES: SATELLITE DATA IS BEING USED TO AUGMENT CLOUD COVER ABOVE
       12000 FEET.
       "FAIR" INDICATES FEW OR NO CLOUDS BELOW 12,000 FEET WITH NO
       SIGNIFICANT WEATHER AND/OR OBSTRUCTIONS TO VISIBILITY.

  * THESE STATIONS DO NOT REPORT WEATHER SUCH AS RAIN...SNOW OR FOG.

NEZ001>004-019>022-054>056-282100-
NEBRASKA PANHANDLE

CITY           SKY/WX    TMP DP  RH WIND       PRES   REMARKS
SCOTTSBLUFF    MOSUNNY   73  40  30 VRB3      29.93F
ALLIANCE       MOSUNNY   72  48  42 VRB5      29.93F
CHADRON        CLOUDY    68  47  46 W3        29.91F
SIDNEY         MOSUNNY   70  45  40 VRB5      29.98F
$$

NEZ057>060-069>072-079>082-282100-
SOUTHWEST NEBRASKA

CITY           SKY/WX    TMP DP  RH WIND       PRES   REMARKS
NORTH PLATTE   MOSUNNY   71  52  50 W8        29.92F
IMPERIAL       MOSUNNY   71  47  42 W9G18     29.96F
LEXINGTON      PTSUNNY   71  55  57 W7        29.91F
MCCOOK         MOSUNNY   75  51  43 NW9       29.94S
$$

NEZ005>010-023>029-035>040-094-282100-
NORTH CENTRAL NEBRASKA

CITY           SKY/WX    TMP DP  RH WIND       PRES   REMARKS
VALENTINE      CLOUDY    71  47  42 W8        29.89S
AINSWORTH      MOSUNNY   71  49  45 NW8G18    29.89S
BROKEN BOW     MOSUNNY   71  52  50 NW9       29.89F
ORD            MOSUNNY   72  53  51 NW16G25   29.86S
$$

NEZ041-046>049-061>064-073>077-083>087-282100-
SOUTH CENTRAL NEBRASKA

CITY           SKY/WX    TMP DP  RH WIND       PRES   REMARKS
GRAND ISLAND   MOSUNNY   71  54  54 NW21G29   29.88R
AURORA         CLOUDY    70  58  63 NW10      29.87R
HASTINGS       PTSUNNY   74  52  46 W17G26    29.89R
KEARNEY *      MOSUNNY   73  50  43 W14G21    29.91R
YORK           MOSUNNY   72  57  60 NW16      29.86R
$$

NEZ011>018-030>034-042>045-282100-
NORTHEAST NEBRASKA

CITY           SKY/WX    TMP DP  RH WIND       PRES   REMARKS
NORFOLK        LGT RAIN  67  56  67 W20G26    29.81R
ALBION         PTSUNNY   65  56  71 NW14      29.86R
BLAIR          CLOUDY    68  60  74 W15G22    29.80S
FREMONT        PTSUNNY   70  59  69 W20G25    29.81S
TEKAMAH        PTSUNNY   70  58  65 W28G39    29.75S
$$

NEZ050>053-065>068-078-088>093-282100-
SOUTHEAST NEBRASKA

CITY           SKY/WX    TMP DP  RH WIND       PRES   REMARKS
LINCOLN        MOSUNNY   75  57  53 W14G21    29.84S
OMAHA EPPLEY   CLOUDY    71  59  65 SW15G22   29.80R
BEATRICE       PTSUNNY   74  58  57 W16G22    29.85S
FALLS CITY     MOSUNNY   75  59  57 W15G23    29.85S
NEBRASKA CITY  MOSUNNY   72  57  59 W17G26    29.84R
PLATTSMOUTH    CLOUDY    72  57  60 W17G23    29.83R
$$

NEZ044-045-051>053-067-282100-
OMAHA AREA

CITY           SKY/WX    TMP DP  RH WIND       PRES   REMARKS
OMAHA EPPLEY   CLOUDY    71  59  65 SW15G22   29.80R
BLAIR          CLOUDY    68  60  74 W15G22    29.80S
FREMONT        PTSUNNY   70  59  69 W20G25    29.81S
OFFUTT AFB     PTSUNNY   70  59  68 SW15      29.81R
PLATTSMOUTH    CLOUDY    72  57  60 W17G23    29.83R
WAHOO          MOCLDY    70  59  66 W17G23    29.82R
$$




USA.gov is the U.S. government's official web portal to all federal, state and local government web resources and services.